TimeCST,TemperatureF,Dew PointF,Humidity,Sea Level PressureIn,VisibilityMPH,Wind Direction,Wind SpeedMPH,Gust SpeedMPH,PrecipitationIn,Events,Conditions,WindDirDegrees,DateUTC
12:54 AM,19.9,12.0,71,30.26,10.0,SW,5.8,-,N/A,,Scattered Clouds,220,2013-12-26 06:54:00
1:54 AM,19.9,12.9,74,30.24,10.0,SSW,6.9,-,N/A,,Overcast,200,2013-12-26 07:54:00
2:54 AM,23.0,14.0,68,30.23,10.0,SW,6.9,-,N/A,,Overcast,230,2013-12-26 08:54:00
3:54 AM,19.9,12.9,74,30.22,10.0,South,6.9,-,N/A,,Mostly Cloudy,190,2013-12-26 09:54:00
4:54 AM,21.9,15.1,75,30.21,10.0,SSW,8.1,-,N/A,,Overcast,210,2013-12-26 10:54:00
5:54 AM,21.0,15.1,78,30.20,10.0,SSW,5.8,-,N/A,,Clear,200,2013-12-26 11:54:00
6:54 AM,19.9,14.0,78,30.19,10.0,South,8.1,-,N/A,,Partly Cloudy,190,2013-12-26 12:54:00
7:54 AM,26.1,18.0,71,30.18,10.0,SW,11.5,-,N/A,,Mostly Cloudy,220,2013-12-26 13:54:00
8:54 AM,30.0,21.0,69,30.16,10.0,SW,10.4,-,N/A,,Overcast,220,2013-12-26 14:54:00
9:54 AM,34.0,23.0,64,30.16,10.0,SSW,12.7,-,N/A,,Overcast,210,2013-12-26 15:54:00
10:54 AM,35.1,23.0,61,30.17,10.0,WSW,13.8,-,N/A,,Overcast,250,2013-12-26 16:54:00
11:54 AM,36.0,23.0,59,30.15,10.0,West,11.5,-,N/A,,Overcast,270,2013-12-26 17:54:00
12:54 PM,37.0,23.0,57,30.14,10.0,West,12.7,-,N/A,,Overcast,270,2013-12-26 18:54:00
1:54 PM,37.0,24.1,59,30.13,10.0,WSW,10.4,-,N/A,,Partly Cloudy,250,2013-12-26 19:54:00
2:54 PM,37.9,24.1,57,30.13,10.0,West,10.4,-,N/A,,Partly Cloudy,260,2013-12-26 20:54:00
3:54 PM,37.0,25.0,62,30.16,10.0,WSW,10.4,-,N/A,,Partly Cloudy,250,2013-12-26 21:54:00
4:54 PM,34.0,24.1,67,30.17,10.0,SW,9.2,-,N/A,,Partly Cloudy,230,2013-12-26 22:54:00
5:54 PM,33.1,24.1,70,30.19,10.0,WSW,9.2,-,N/A,,Partly Cloudy,240,2013-12-26 23:54:00
6:54 PM,30.9,23.0,72,30.21,10.0,WSW,5.8,-,N/A,,Clear,240,2013-12-27 00:54:00
7:54 PM,30.0,21.9,72,30.22,10.0,SW,4.6,-,N/A,,Clear,230,2013-12-27 01:54:00
8:54 PM,30.0,21.9,72,30.22,10.0,SW,4.6,-,N/A,,Partly Cloudy,230,2013-12-27 02:54:00
9:54 PM,28.9,21.9,75,30.23,10.0,WSW,4.6,-,N/A,,Clear,240,2013-12-27 03:54:00
10:54 PM,27.0,19.9,75,30.25,10.0,WSW,6.9,-,N/A,,Clear,250,2013-12-27 04:54:00
11:54 PM,27.0,19.9,75,30.25,10.0,West,4.6,-,N/A,,Clear,280,2013-12-27 05:54:00